Home   Weather   Roswell   Past weeks
Flag for USA

Past Weather in Roswell, New Mexico, USA — Yesterday and Last 2 Weeks

Now
64 °F

Clear.


Feels Like: 64 °F
Forecast: 54 / 36 °F
Wind: 9 mph from Northwest

Location: Roswell Industrial Air Center Airport

Current Time: Dec 5, 2019 at 5:32:40 pm

Latest Report: Dec 5, 2019 at 4:51 pm


Visibility: 10 mi

Pressure: 29.92 "Hg (26.33 "Hg at 1089m altitude)

Humidity: 35%

Dew Point: 36 °F

Location of RoswellLocation

Past Weather in Roswell — Graph

°F

Roswell Temperature Yesterday

Maximum temperature yesterday: 54 °F (at 3:51 pm)
Minimum temperature yesterday: 38 °F (at 10:51 pm)
Average temperature yesterday: 47 °F

High & Low Weather Summary for the Past Weeks

 TemperatureHumidityPressure
High72 °F (Dec 5, 12:51 pm)97% (Nov 21, 5:19 am)30.27 "Hg (Nov 21, 5:19 am)
Low30 °F (Nov 27, 4:51 am)11% (Nov 26, 3:51 pm)29.33 "Hg (Nov 25, 11:51 pm)
Average46 °F66%29.95 "Hg
* Reported Nov 20 3:51 pm — Dec 5 3:51 pm, Roswell. Weather by CustomWeather, © 2019

Note: Actual official high and low records may vary slightly from our data, if they occured in-between our weather recording intervals... More about our weather records

Roswell Weather History for the Previous 24 Hours

Scroll right to see more
 ConditionsComfort  
Time TempWeatherWind HumidityBarometerVisibility
3:51 pm
Thu, Dec 5
70 °FSunny.14 mph26%29.86 "Hg10 mi
2:51 pm71 °FSunny.17 mph25%29.84 "Hg10 mi
1:51 pm72 °FSunny.7 mph29%29.83 "Hg10 mi
12:51 pm72 °FSunny.15 mph29%29.83 "Hg10 mi
11:51 am63 °FSunny.3 mph50%29.88 "Hg10 mi
10:51 am56 °FSunny.3 mph60%29.93 "Hg10 mi
9:51 am52 °FSunny.3 mph64%29.95 "Hg10 mi
8:51 am45 °FSunny.3 mph74%29.96 "Hg10 mi
7:51 am38 °FSunny.6 mph86%29.95 "Hg10 mi
6:51 am35 °FSunny.5 mph88%29.96 "Hg8 mi
5:51 am36 °FClear.No wind89%29.92 "Hg9 mi
4:51 am36 °FClear.No wind89%29.90 "Hg7 mi
3:51 am39 °FClear.3 mph86%29.89 "Hg10 mi
2:51 am38 °FClear.6 mph86%29.91 "Hg10 mi
1:51 am38 °FClear.3 mph83%29.91 "Hg10 mi
12:51 am39 °FClear.3 mph82%29.92 "Hg10 mi
11:51 pm
Wed, Dec 4
39 °FClear.3 mph86%29.93 "Hg10 mi
10:51 pm38 °FClear.3 mph86%29.95 "Hg10 mi
9:51 pm39 °FClear.5 mph86%29.96 "Hg10 mi
8:51 pm40 °FClear.6 mph83%29.96 "Hg10 mi
7:51 pm43 °FClear.3 mph76%29.96 "Hg10 mi
6:51 pm43 °FClear.No wind79%29.97 "Hg10 mi
5:51 pm47 °FClear.3 mph71%29.96 "Hg10 mi
Weather by CustomWeather, © 2019

See weather overview

Advertising